Tracking 29069 objects as of 18-Jul-2024
HD Live streaming from Space Station
objects crossing your sky now

STARLINK-3917

Track STARLINK-3917 now!
10-day predictions
STARLINK-3917 is classified as:


NORAD ID: 52588
Int'l Code: 2022-051BE
Perigee: 546.0 km
Apogee: 547.8 km
Inclination: 53.2 °
Period: 95.4 minutes
Semi major axis: 6917 km
RCS: Unknown
Launch date: May 13, 2022
Source: United States (US)
Launch site: AIR FORCE WESTERN TEST RANGE (AFWTR)
Your satellite tracking list
Your tracking list is empty




NASA's NSSDC Master Catalog

Two Line Element Set (TLE):
1 52588U 22051BE  24199.58700260  .00000190  00000-0  29997-4 0  9991
2 52588  53.2174 293.0895 0001272  82.2857 277.8280 15.08838609121064
Source of the keplerian elements: AFSPC